[[{"header":{"parameterUnit":"m.s-1","parameterCategory":1,"la1":30.2992,"la2":30.254,"lo1":-89.0895,"lo2":-89.0443,"dy":0.0025,"dx":0.0025,"nx":19,"ny":19,"refTime":"2026-03-17T03:00:00:Z","depth":0,"parameterNumber":2,"parameterNumberName":"U-component_of_WINDS"},"data":[0,0,0,3.0248,3.0249,3.0266,3.0266,3.0304,3.0304,0,0,0,0,0,0,0,0,0,0,0,3.0253,3.0253,3.0248,3.0249,3.0266,3.0266,3.0304,3.0304,0,0,0,0,0,0,0,0,0,0,0,3.0252,3.0253,3.0254,3.0249,3.0266,3.0266,3.0304,3.0285,0,0,0,0,0,0,0,0,0,0,3.0266,3.0279,3.0253,3.0254,3.0249,3.0266,3.0266,3.0284,3.0286,3.0303,0,3.0321,0,3.0313,3.0308,3.0308,0,0,0,3.0242,3.0277,3.0273,3.0254,3.0249,3.0266,3.0256,3.0285,3.0288,3.0307,3.0321,3.0322,3.0314,3.0308,3.0309,3.0431,3.0432,0,0,3.0241,3.0261,3.0272,3.0276,3.0274,3.0256,3.0257,3.0286,3.0303,3.0321,3.0323,3.0315,3.0309,3.0309,3.043,3.0431,0,0,0,3.0243,3.026,3.0255,3.0274,3.0276,3.0256,3.0257,3.0302,3.0299,3.0323,3.0315,3.0309,3.031,3.0429,3.043,3.0495,0,0,0,3.0242,3.0262,3.0255,3.0268,3.0276,3.0289,3.0273,3.0297,3.03,3.0315,3.0309,3.031,3.0428,3.043,3.0491,3.0522,0,0,0,3.0248,3.0262,3.0268,3.0269,3.0277,3.0288,3.0286,3.0297,3.0295,3.0308,3.031,3.0427,3.0429,3.0487,3.0516,3.056,0,0,0,3.0261,3.0324,3.0269,3.0337,3.0277,3.0328,3.0286,3.0323,3.0342,3.0309,3.0428,3.043,3.0486,3.0512,3.0556,3.0601,3.0621,0,0,3.0352,3.0336,3.0374,3.0326,3.0392,3.0324,3.04,3.0398,3.0381,3.0415,3.0418,3.0492,3.0515,3.0559,3.0729,3.0746,0,0,0,3.041,3.0438,3.0451,3.047,3.0471,3.0475,3.0459,3.0459,3.0488,3.0403,3.052,3.0533,3.0558,3.0578,3.0592,3.0612,3.0441,3.044,3.044,3.0566,3.0542,3.0604,3.0583,3.0603,3.0588,3.0601,3.0598,3.0567,3.0596,3.0605,3.0711,3.0736,3.0746,3.0768,3.0627,3.0627,3.0628,3.0628,3.0697,3.0733,3.0692,3.0738,3.0713,3.0752,3.0741,3.0718,3.075,3.0702,3.0722,3.0671,3.0765,3.0783,3.0632,3.0632,3.0631,3.0631,3.063,3.0796,3.0809,3.0809,3.0836,3.086,3.0836,3.087,3.0846,3.0823,3.0844,3.0852,3.0851,3.0847,3.085,3.085,3.085,3.0851,3.0851,3.0851,3.0898,3.0896,3.0928,3.0936,3.0947,3.0957,3.0945,3.0955,3.0959,3.0939,3.0939,3.0906,3.0779,3.0747,3.0857,3.0856,3.0855,3.0854,3.0854,3.1039,3.1004,3.1053,3.1064,3.1073,3.1099,3.1069,3.1091,3.1096,3.1114,3.1077,3.0987,3.0969,3.0958,3.0931,3.1081,3.1081,3.1082,3.1082,3.1123,3.1112,3.1157,3.1176,3.1192,3.1171,3.1228,3.122,3.1206,3.1208,3.1183,3.1146,3.1136,3.1124,3.1109,3.1084,3.1269,3.127,3.127,3.1208,3.1198,3.1251,3.1237,3.1244,3.125,3.1303,3.1328,3.1304,3.1277,3.1209,3.1201,3.1142,3.1123,3.1093,3.107,3.1024,0,0]},{"header":{"parameterUnit":"m.s-1","parameterCategory":1,"la1":30.2992,"la2":30.254,"lo1":-89.0895,"lo2":-89.0443,"dy":0.0025,"dx":0.0025,"nx":19,"ny":19,"refTime":"2026-03-17T03:00:00:Z","depth":0,"parameterNumber":3,"parameterNumberName":"V-component_of_WINDS"},"data":[0,0,0,-8.8891,-8.8897,-8.9177,-8.9178,-8.9552,-8.9555,0,0,0,0,0,0,0,0,0,0,0,-8.8821,-8.8824,-8.8891,-8.8898,-8.9177,-8.9178,-8.9551,-8.9555,0,0,0,0,0,0,0,0,0,0,0,-8.8819,-8.8823,-8.8827,-8.8899,-8.9177,-8.9178,-8.955,-8.9333,0,0,0,0,0,0,0,0,0,0,-8.9059,-8.9006,-8.8822,-8.8827,-8.8901,-8.9177,-8.9178,-8.9322,-8.9347,-8.9433,0,-8.9515,0,-8.9541,-8.9581,-8.9583,0,0,0,-8.8888,-8.8986,-8.9051,-8.8827,-8.8904,-8.9176,-8.9048,-8.9336,-8.9363,-8.9465,-8.952,-8.9533,-8.9548,-8.9584,-8.9586,-9.0122,-9.0125,0,0,-8.8873,-8.8877,-8.9032,-8.9069,-8.903,-8.904,-8.9057,-8.9352,-8.9411,-8.9521,-8.9542,-8.9554,-8.9587,-8.959,-9.0119,-9.0123,0,0,0,-8.8835,-8.8867,-8.8923,-8.9054,-8.9103,-8.9048,-8.9068,-8.9398,-8.9416,-8.9546,-8.9558,-8.9589,-8.9594,-9.0116,-9.0121,-9.0273,0,0,0,-8.8825,-8.8844,-8.8917,-8.8922,-8.9098,-8.9255,-8.9108,-8.9396,-8.9429,-8.9556,-8.9589,-8.9597,-9.0113,-9.0118,-9.0261,-9.0344,0,0,0,-8.8798,-8.8841,-8.8886,-8.8922,-8.9043,-8.925,-8.9285,-8.9403,-8.9437,-8.9583,-8.9599,-9.0111,-9.0117,-9.0252,-9.0327,-9.0487,0,0,0,-8.877,-8.9015,-8.8888,-8.9168,-8.9041,-8.9342,-8.9283,-8.9507,-8.965,-8.9591,-9.0113,-9.012,-9.0248,-9.0317,-9.0476,-9.0623,-9.0685,0,0,-8.9082,-8.9053,-8.9217,-8.9112,-8.9438,-8.9299,-8.9647,-8.9773,-8.9781,-9.0007,-9.002,-9.0265,-9.0326,-9.0485,-9.1026,-9.1074,0,0,0,-8.9317,-8.9435,-8.9521,-8.9659,-8.9762,-8.9858,-8.993,-8.9977,-9.0169,-8.9899,-9.0365,-9.0401,-9.0494,-9.0564,-9.0606,-9.0686,-9.0152,-9.0152,-9.0151,-8.9764,-8.9765,-9.0036,-9.0071,-9.0205,-9.0278,-9.0387,-9.0462,-9.042,-9.0531,-9.0598,-9.0927,-9.1009,-9.104,-9.1123,-9.0675,-9.0675,-9.0676,-9.0676,-9.0222,-9.039,-9.0332,-9.0574,-9.0573,-9.0775,-9.0855,-9.082,-9.1007,-9.0875,-9.0957,-9.0814,-9.1093,-9.1166,-9.0688,-9.0686,-9.0684,-9.0683,-9.0682,-9.0516,-9.0596,-9.0651,-9.0851,-9.1005,-9.103,-9.1214,-9.1205,-9.1197,-9.1278,-9.1348,-9.1346,-9.1343,-9.1312,-9.1313,-9.1314,-9.1315,-9.1316,-9.1317,-9.08,-9.0856,-9.1014,-9.1146,-9.1233,-9.1348,-9.1424,-9.151,-9.1602,-9.1581,-9.1581,-9.153,-9.1121,-9.1019,-9.1335,-9.1331,-9.1329,-9.1328,-9.1326,-9.1266,-9.1159,-9.1403,-9.1491,-9.1645,-9.1799,-9.1785,-9.1961,-9.203,-9.2121,-9.2053,-9.1751,-9.172,-9.1687,-9.1603,-9.2051,-9.2051,-9.2051,-9.2051,-9.1514,-9.1498,-9.1746,-9.1888,-9.2026,-9.2039,-9.2313,-9.2374,-9.2421,-9.2463,-9.2397,-9.2284,-9.225,-9.2239,-9.2194,-9.2115,-9.2684,-9.2685,-9.2685,-9.1801,-9.1798,-9.2035,-9.2081,-9.2201,-9.2304,-9.2562,-9.2726,-9.2756,-9.2711,-9.2497,-9.247,-9.2287,-9.2228,-9.2178,-9.2108,-9.1963,0,0]}]]